SQ9IWE-13 Weather Reports


time (UTC)temp
C
wind
direction
speed
KPH
gust
KPH
rain 1hr
cm
rain 24hr
cm
rain mn
cm
humidity
%
barometer
mb
20260507104001 21 0.0 0.0 0.00 0.00 0.00 60 1010.5
20260507103001 21 0.0 0.0 0.00 0.00 0.00 59 1010.4
20260507102001 21 0.0 0.0 0.00 0.00 0.00 60 1010.5
20260507101001 20 0.0 0.0 0.00 0.00 0.00 61 1010.6
20260507100001 21 0.0 0.0 0.00 0.00 0.00 60 1010.5
20260507095001 21 0.0 0.0 0.00 0.00 0.00 60 1010.3
20260507094001 21 0.0 0.0 0.00 0.00 0.00 61 1010.3
20260507093001 21 0.0 0.0 0.00 0.00 0.00 61 1010.2
20260507092001 20 0.0 0.0 0.00 0.00 0.00 62 1010.2
20260507091001 21 0.0 0.0 0.00 0.00 0.00 62 1010.1
20260507090001 21 0.0 0.0 0.00 0.00 0.00 62 1009.8
20260507085001 20 0.0 0.0 0.00 0.00 0.00 64 1009.8
20260507084001 19 0.0 0.0 0.00 0.00 0.00 67 1009.7
20260507083001 21 0.0 0.0 0.00 0.00 0.00 62 1009.6
20260507082001 21 0.0 0.0 0.00 0.00 0.00 65 1009.4
20260507081001 18 0.0 0.0 0.00 0.00 0.00 71 1009.5
20260507080001 18 0.0 0.0 0.00 0.00 0.00 70 1009.5
20260507075001 18 0.0 0.0 0.00 0.00 0.00 71 1009.4
20260507074001 18 0.0 0.0 0.00 0.00 0.00 68 1009.1
20260507073001 -13 0.0 0.0 0.00 0.00 0.00 68 19.8
20260507072001 18 0.0 0.0 0.00 0.00 0.00 70 1008.8
20260507071001 18 0.0 0.0 0.00 0.00 0.00 70 1008.8
20260507070001 18 0.0 0.0 0.00 0.00 0.00 71 1008.6
20260507065001 17 0.0 0.0 0.00 0.00 0.00 72 1008.6
20260507064000 17 0.0 0.0 0.00 0.00 0.00 75 1008.7
20260507063000 16 0.0 0.0 0.00 0.00 0.00 77 1008.6
20260507062000 16 0.0 0.0 0.00 0.00 0.00 77 1008.6
20260507061000 16 0.0 0.0 0.00 0.00 0.00 77 1008.5
20260507060000 16 0.0 0.0 0.00 0.00 0.00 78 1008.3
20260507055000 16 0.0 0.0 0.00 0.00 0.00 78 1008.2
20260507054000 16 0.0 0.0 0.00 0.00 0.00 78 1008.2
20260507053000 16 0.0 0.0 0.00 0.00 0.00 77 1008.1
20260507052000 16 0.0 0.0 0.00 0.00 0.00 76 1008.0
20260507051000 16 0.0 0.0 0.00 0.00 0.00 75 1007.8
20260507050000 16 0.0 0.0 0.00 0.00 0.00 74 1007.9
20260507045001 16 0.0 0.0 0.00 0.00 0.00 73 1007.6
20260507044001 16 0.0 0.0 0.00 0.00 0.00 73 1007.5
20260507043001 16 0.0 0.0 0.00 0.00 0.00 72 1007.4
20260507042001 16 0.0 0.0 0.00 0.00 0.00 73 1007.2
20260507041001 16 0.0 0.0 0.00 0.00 0.00 73 1007.2
20260507040001 16 0.0 0.0 0.00 0.00 0.00 74 1007.0
20260507035001 16 0.0 0.0 0.00 0.00 0.00 75 1007.0
20260507034001 15 0.0 0.0 0.00 0.00 0.00 76 1007.0
20260507033001 15 0.0 0.0 0.00 0.00 0.00 76 1006.8
20260507032001 15 0.0 0.0 0.00 0.00 0.00 76 1006.8
20260507031001 15 0.0 0.0 0.00 0.00 0.00 77 1006.7
20260507030001 15 0.0 0.0 0.00 0.00 0.00 77 1006.5
20260507025001 15 0.0 0.0 0.00 0.00 0.00 77 1006.6
20260507024001 15 0.0 0.0 0.00 0.00 0.00 77 1006.6
20260507023001 15 0.0 0.0 0.00 0.00 0.00 76 1006.6
20260507022001 15 0.0 0.0 0.00 0.00 0.00 75 1006.5
20260507021001 15 0.0 0.0 0.00 0.00 0.00 74 1006.4
20260507020001 16 0.0 0.0 0.00 0.00 0.00 72 1006.3
20260507015001 16 0.0 0.0 0.00 0.00 0.00 72 1006.3
20260507014001 16 0.0 0.0 0.00 0.00 0.00 71 1006.3
20260507013001 16 0.0 0.0 0.00 0.00 0.00 70 1006.4
20260507012001 16 0.0 0.0 0.00 0.00 0.00 69 1006.3
20260507011001 16 0.0 0.0 0.00 0.00 0.00 69 1006.1
20260507010001 17 0.0 0.0 0.00 0.00 0.00 68 1006.0
20260507005001 17 0.0 0.0 0.00 0.00 0.00 68 1006.0
20260507004001 17 0.0 0.0 0.00 0.00 0.00 68 1006.2
20260507003001 17 0.0 0.0 0.00 0.00 0.00 67 1006.1
20260507002001 17 0.0 0.0 0.00 0.00 0.00 67 1006.1
20260507001000 17 0.0 0.0 0.00 0.00 0.00 67 1006.1
20260507000000 17 0.0 0.0 0.00 0.00 0.00 66 1006.1
20260506235000 17 0.0 0.0 0.00 0.00 0.00 65 1006.2
20260506234000 17 0.0 0.0 0.00 0.00 0.00 65 1006.2
20260506233000 17 0.0 0.0 0.00 0.00 0.00 65 1006.2
20260506232000 17 0.0 0.0 0.00 0.00 0.00 66 1006.2
20260506231000 17 0.0 0.0 0.00 0.00 0.00 65 1006.2
20260506230000 17 0.0 0.0 0.00 0.00 0.00 64 1006.2
20260506225000 17 0.0 0.0 0.00 0.00 0.00 64 1006.2
20260506224000 18 0.0 0.0 0.00 0.00 0.00 63 1006.2
20260506223000 18 0.0 0.0 0.00 0.00 0.00 62 1006.3
20260506222000 18 0.0 0.0 0.00 0.00 0.00 62 1006.2
20260506221000 18 0.0 0.0 0.00 0.00 0.00 62 1006.1
20260506220001 18 0.0 0.0 0.00 0.00 0.00 61 1006.1
20260506215001 18 0.0 0.0 0.00 0.00 0.00 62 1006.2
20260506214001 18 0.0 0.0 0.00 0.00 0.00 61 1006.2
20260506213001 17 0.0 0.0 0.00 0.00 0.00 63 1006.1
20260506212001 17 0.0 0.0 0.00 0.00 0.00 63 1006.1
20260506211001 17 0.0 0.0 0.00 0.00 0.00 64 1006.2
20260506210001 18 0.0 0.0 0.00 0.00 0.00 65 1006.2
20260506205001 18 0.0 0.0 0.00 0.00 0.00 64 1006.0
20260506204001 18 0.0 0.0 0.00 0.00 0.00 63 1006.1
20260506203001 18 0.0 0.0 0.00 0.00 0.00 62 1005.9
20260506202001 18 0.0 0.0 0.00 0.00 0.00 61 1006.0
20260506200001 18 0.0 0.0 0.00 0.00 0.00 60 1005.9
20260506195001 19 0.0 0.0 0.00 0.00 0.00 60 1005.7
20260506194001 19 0.0 0.0 0.00 0.00 0.00 59 1005.7
20260506193001 19 0.0 0.0 0.00 0.00 0.00 59 1005.6
20260506192001 19 0.0 0.0 0.00 0.00 0.00 59 1005.7
20260506191001 19 0.0 0.0 0.00 0.00 0.00 60 1005.8
20260506190001 19 0.0 0.0 0.00 0.00 0.00 61 1005.7
20260506185001 19 0.0 0.0 0.00 0.00 0.00 60 1005.7
20260506184001 20 0.0 0.0 0.00 0.00 0.00 61 1005.5
20260506183001 20 0.0 0.0 0.00 0.00 0.00 60 1005.4
20260506182001 20 0.0 0.0 0.00 0.00 0.00 60 1005.4
20260506181001 20 0.0 0.0 0.00 0.00 0.00 60 6.0
20260506180001 20 0.0 0.0 0.00 0.00 0.00 60 1005.3
20260506175001 21 0.0 0.0 0.00 0.00 0.00 58 1005.3
20260506174001 21 0.0 0.0 0.00 0.00 0.00 58 1005.2
20260506173000 20 0.0 0.0 0.00 0.00 0.00 60 1005.2
20260506172000 20 0.0 0.0 0.00 0.00 0.00 64 1005.3
20260506171000 20 0.0 0.0 0.00 0.00 0.00 66 1005.3
20260506170000 20 0.0 0.0 0.00 0.00 0.00 68 1005.3
20260506165000 20 0.0 0.0 0.00 0.00 0.00 64 1005.3
20260506164000 19 0.0 0.0 0.00 0.00 0.00 67 1005.4
20260506163000 19 0.0 0.0 0.00 0.00 0.00 68 1005.4
20260506162000 19 0.0 0.0 0.00 0.00 0.00 66 1005.5
20260506161000 19 0.0 0.0 0.00 0.00 0.00 63 1005.5
20260506160000 19 0.0 0.0 0.00 0.00 0.00 66 1005.5
20260506155000 20 0.0 0.0 0.00 0.00 0.00 62 1005.8
20260506154001 23 0.0 0.0 0.00 0.00 0.00 47 1005.5
20260506153001 23 0.0 0.0 0.00 0.00 0.00 45 1005.6
20260506152001 24 0.0 0.0 0.00 0.00 0.00 43 1005.7
20260506151001 25 0.0 0.0 0.00 0.00 0.00 43 1005.6
20260506150002 25 0.0 0.0 0.00 0.00 0.00 42 1005.7
20260506145001 25 0.0 0.0 0.00 0.00 0.00 44 1005.8
20260506144001 25 0.0 0.0 0.00 0.00 0.00 43 1005.9
20260506143001 25 0.0 0.0 0.00 0.00 0.00 44 1006.0
20260506142001 25 0.0 0.0 0.00 0.00 0.00 42 1006.0
20260506141001 25 0.0 0.0 0.00 0.00 0.00 42 1006.0
20260506140001 25 0.0 0.0 0.00 0.00 0.00 42 1006.1
20260506135001 25 0.0 0.0 0.00 0.00 0.00 42 1006.2
20260506134001 25 0.0 0.0 0.00 0.00 0.00 43 1006.1
20260506133001 25 0.0 0.0 0.00 0.00 0.00 44 1006.2
20260506132001 23 0.0 0.0 0.00 0.00 0.00 44 266.4
20260506131001 25 0.0 0.0 0.00 0.00 0.00 44 1006.3
20260506130001 25 0.0 0.0 0.00 0.00 0.00 44 1006.4
20260506125001 25 0.0 0.0 0.00 0.00 0.00 45 1006.4
20260506124001 24 0.0 0.0 0.00 0.00 0.00 46 1006.5
20260506123001 25 0.0 0.0 0.00 0.00 0.00 45 1006.6
20260506122001 25 0.0 0.0 0.00 0.00 0.00 45 1006.7
20260506121001 25 0.0 0.0 0.00 0.00 0.00 44 1006.7
20260506120001 25 0.0 0.0 0.00 0.00 0.00 45 1006.5
20260506115001 26 0.0 0.0 0.00 0.00 0.00 42 1006.7
20260506114002 28 0.0 0.0 0.00 0.00 0.00 40 1006.0
20260506113001 27 0.0 0.0 0.00 0.00 0.00 41 1006.7
20260506112001 26 0.0 0.0 0.00 0.00 0.00 42 1006.8
20260506111001 27 0.0 0.0 0.00 0.00 0.00 42 1006.7
20260506110001 27 0.0 0.0 0.00 0.00 0.00 42 1006.7
20260506105001 26 0.0 0.0 0.00 0.00 0.00 43 1006.8